"Pseudo-MPEC" for ZTF0LDZ

Created 2021 Jun 11 20:07:25 UT using Find_Orb

Click here for an explanation of pseudo-MPECs

 
 Astrometry: 
     ZTF0LDZ  C2021 06 10.27350715 52 03.35 -13 01 03.0    ~6A97 15.24gUNEOCPI41
     ZTF0LDZ  C2021 06 10.27351915 52 03.21 -13 01 02.4    ~6BEM       UNEOCPI41
     ZTF0LDZ  C2021 06 10.27385415 52 12.25 -13 00 23.7    ~6A97 15.24gUNEOCPI41
     ZTF0LDZ  C2021 06 10.27386615 52 12.10 -13 00 22.2    ~6BEM       UNEOCPI41
     ZTF0LDZ  C2021 06 10.30980316 06 25.82 -11 58 20.6    ~6A97 14.73RUNEOCPI41
     ZTF0LDZ  C2021 06 10.31015016 06 33.36 -11 57 47.3    ~6A97 14.73RUNEOCPI41
     ZTF0LDZ  C2021 06 10.31120416 06 56.33 -11 56 09.2    ~6A97 14.73RUNEOCPI41
     ZTF0LDZ  C2021 06 10.31155116 07 03.94 -11 55 35.9    ~6A97 14.73RUNEOCPI41

Station data:
(I41) Palomar Mountain--ZTF  (N33.357340 W116.859780)  US/California. 1.2-m
   f/2.44 Oschin Schmidt + CCD.

Orbital elements:  ZTF0LDZ
   Perigee 2021 Jun 10.093153 +/- 0.0111579 TT =  2:14:08 (JD 2459375.593153)
Epoch 2021 Jun 10.0 TT = JDT 2459375.5                        AutoNEOCP
M 313.13499976 +/- 6.0639466        (J2000 equator)
n 503.09934245 +/- 43.6507          Peri.  148.47191 +/- 3.1996301
a 33793.5907 +/- 1953               Node   287.56731 +/- 1.1821336
e   0.8042394 +/- 0.0133017         Incl.   10.23480 +/- 0.5581494
P1030.39m/0.716d           H 31.6   G  0.15   U 15.3  
q 6615.45229 +/- 586.14    Q 60971.7291 +/- 3666
From 8 observations 2021 June 10 (54.8 min); mean residual 1".76
Residuals in arcseconds: 
210610 I41  4.2+  .42+    210610 I41  4.3-  .03+    210610 I41  .60-  .48-    
210610 I41  2.4-  .35-    210610 I41  .56+  .24-    210610 I41  .26+  .34+    
210610 I41  2.4+  .10-    210610 I41  .20-  .38+    

Ephemerides (geocentric):
Date (UTC) HH   RA              Dec         delta   r     elong  mag " sig PA
---- -- -- --  -------------   -----------  ------ ------ -----  --- ---- ---
2021 06 11 20  16 50 02.455   -05 50 43.45   60228 1.0159 161.3 15.6 617'  81
2021 06 11 21  17 05 23.669   -05 16 08.39   60959 1.0159 161.8 15.6 658'  81
2021 06 11 22  17 20 37.995   -04 40 21.40   60569 1.0159 161.5 15.6 741'  80
2021 06 11 23  17 36 20.168   -04 02 07.99   59045 1.0159 160.5 15.5 893'  80
2021 06 12 00  17 53 11.136   -03 19 47.96   56336 1.0158 158.7 15.5  20d  80
2021 06 12 01  18 12 09.212   -02 30 47.78   52338 1.0158 155.9 15.4  32d  80
2021 06 12 02  18 34 53.565   -01 30 38.67   46874 1.0158 151.9 15.3 102d  80
2021 06 12 03  19 04 49.024   -00 10 08.90   39638 1.0157 145.9 15.1  91d  80
2021 06 12 04  19 51 13.395   +01 54 30.77   30057 1.0156 135.8 14.8  80d  80
2021 06 12 05  21 38 28.147   +06 15 11.02   16917 1.0156 110.8 14.3  96d  82
2021 06 12 06  09 34 26.904   -06 07 33.89    9115 1.0155  68.2 14.8  92d  98
2021 06 12 07  13 44 30.619   -10 04 48.85   24330 1.0156 126.6 14.6  35d  88
2021 06 12 08  14 50 10.219   -09 13 36.21   35400 1.0157 141.1 15.0  24d  85
2021 06 12 09  15 26 55.923   -08 24 57.28   43661 1.0158 148.7 15.2  19d  84
2021 06 12 10  15 52 59.173   -07 42 30.07   49922 1.0158 153.6 15.4  17d  83
2021 06 12 11  16 13 47.379   -07 04 13.57   54593 1.0159 156.9 15.5 932'  82
2021 06 12 12  16 31 41.588   -06 28 25.02   57902 1.0159 159.3 15.5 915'  82
2021 06 12 13  16 47 57.447   -05 53 46.15   59983 1.0159 160.8 15.6 944'  81
2021 06 12 14  17 03 23.389   -05 19 11.36   60911 1.0159 161.5 15.6  17d  81
2021 06 12 15  17 18 36.473   -04 43 37.08   60716 1.0159 161.5 15.6  20d  81
2021 06 12 16  17 34 11.157   -04 05 51.39   59393 1.0159 160.8 15.6  25d  80
2021 06 12 17  17 50 46.682   -03 24 20.02   56896 1.0159 159.2 15.5  38d  80
2021 06 12 18  18 09 17.188   -02 36 41.84   53132 1.0159 156.7 15.4 119d  80
2021 06 12 19  18 31 11.946   -01 38 55.92   47941 1.0159 153.0 15.3  81d  80
2021 06 12 20  18 59 28.612   -00 23 03.25   41044 1.0158 147.5 15.1  66d  80
2021 06 12 21  19 41 43.183   +01 30 36.51   31934 1.0157 138.4 14.9  66d  80
2021 06 12 22  21 09 24.276   +05 11 39.57   19547 1.0156 118.3 14.4  82d  81
2021 06 12 23  06 56 03.047   +00 31 13.74    6957 1.0155  31.7 18?? 138d 100
2021 06 13 00  13 26 21.273   -10 09 49.33   22004 1.0157 121.8 14.5  45d  89
2021 06 13 01  14 42 25.042   -09 20 59.61   33706 1.0158 138.8 15.0  30d  86
2021 06 13 02  15 22 11.073   -08 30 43.25   42380 1.0158 147.1 15.2  25d  84
2021 06 13 03  15 49 33.723   -07 47 03.42   48953 1.0159 152.3 15.4  22d  83
2021 06 13 04  16 11 03.795   -07 08 00.12   53881 1.0159 155.9 15.5  21d  82
2021 06 13 05  16 29 21.734   -06 31 43.32   57415 1.0160 158.5 15.6  21d  82
2021 06 13 06  16 45 50.759   -05 56 50.32   59704 1.0160 160.2 15.6  22d  81
2021 06 13 07  17 01 22.570   -05 22 13.59   60829 1.0160 161.2 15.6  25d  81
2021 06 13 08  17 16 35.479   -04 46 49.62   60829 1.0160 161.4 15.6  30d  81
2021 06 13 09  17 32 03.881   -04 09 28.60   59704 1.0160 160.9 15.6  44d  81
2021 06 13 10  17 48 25.605   -03 28 41.44   57416 1.0160 159.6 15.5 135d  81
2021 06 13 11  18 06 31.191   -02 42 17.87   53882 1.0160 157.3 15.4  73d  80
2021 06 13 12  18 27 41.460   -01 46 40.85   48955 1.0159 154.0 15.3  58d  80
2021 06 13 13  18 54 31.671   -00 34 51.69   42383 1.0159 149.0 15.2  54d  80
2021 06 13 14  19 33 19.650   +01 09 35.32   33712 1.0158 140.8 14.9  57d  80
2021 06 13 15  20 47 18.684   +04 20 18.67   22016 1.0157 124.0 14.5  70d  81
2021 06 13 16  03 19 27.059   +08 33 57.40    6967 1.0156  34.0 17?? 163d  96
2021 06 13 17  13 03 34.531   -10 11 13.85   19533 1.0157 115.9 14.4  55d  90
2021 06 13 18  14 33 44.048   -09 28 42.54   31924 1.0158 136.2 14.9  37d  86
2021 06 13 19  15 17 04.728   -08 36 47.58   41037 1.0159 145.4 15.2  30d  84